Vertical_Velocity
-0 -0 -1 -0 0 -1 -1 -1 -1 -0 -1 -1 -1 -1 -1 -2 -0 0 -0 -0 -2 -2 -2 -1 -0 -0 -1 1 -3 3 1 -1 0 1 -0 1 2 2 -1 3 5 -1 1 4 2 1 1
-1 -0 -1 -1 -1 -1 -1 -1 -1 -1 -2 -1 -1 -1 -1 -1 -1 -1 -2 -2 -1 -1 -1 -0 -0 1 -1 -1 -3 -0 1 1 -0 -1 -0 1 -1 1 -6 -1 3 4 1 -6 -6 -0 5
-0 -1 -2 -1 -1 -0 -1 -1 -1 -1 -2 -1 -1 -1 -2 -3 -3 -3 -2 -1 -1 -0 -1 -3 -3 -1 -1 2 2 1 0 1 1 2 2 0 3 0 6 -4 4 -2 -7 -3 -3 -0 -9
-1 -1 -0 -0 -1 -1 -1 -1 -1 -1 -2 -2 -1 -1 -2 -2 -2 -2 -1 -1 -1 -1 -2 -1 -0 -2 2 0 0 0 1 0 0 -0 1 1 -1 -3 2 1 -4 -4 5 -4 -12 -2 -8
-1 -1 -0 -0 -1 -1 -0 -1 -1 -2 -2 -2 -2 -2 -1 -1 -0 -1 -1 -2 -1 -2 -1 -3 -1 1 -2 -1 -1 -1 -1 -1 -2 0 2 1 -2 -2 2 -1 -3 -4 -8 -3 -4 3 7
-1 -1 -1 -1 -1 -1 -0 0 -0 -1 -1 -1 -2 -2 -2 -1 -1 -1 -2 -2 -3 -1 -1 1 -3 1 1 -0 -1 -1 0 -1 -4 -3 -1 -1 -2 -2 -2 2 -11 -4 -1 -4 -3 3 24
-1 -1 0 -0 -2 -1 -1 -1 -1 -1 -1 -2 -2 -3 -1 -2 -2 -2 2 2 2 -6 1 2 1 2 -0 -0 -2 -2 -2 -1 -1 -0 -2 2 -2 -5 2 7 13 9 4 4 -5 10 11
-0 -1 -1 -0 0 -1 0 -1 -2 -1 -1 -2 -2 -3 -3 -1 -1 -1 -3 -4 -3 0 -5 -1 -0 -1 -1 -1 -2 -5 -1 -2 -1 -3 -0 1 -7 9 18 24 10 6 -6 -16 -37 2 25
1 1 0 -1 -1 -0 -1 -1 -2 -2 -2 -3 -2 -2 -3 -3 -2 -1 -2 -3 -1 1 2 1 -1 0 2 1 0 -2 1 3 1 1 3 8 -12 5 1 -4 -6 10 13 12 32 -4 -3
-1 -2 -2 -2 -2 -2 -2 -2 -2 -3 -3 -2 -2 -3 -2 -3 -2 -3 -1 -2 -2 0 3 2 0 -1 1 -2 -5 -11 -2 1 -1 -0 -3 -5 5 2 0 6 7 -2 0 0 -0 5 1
0 0 -1 -1 -1 -1 -2 -2 -1 -1 -1 -3 -2 -2 -2 -2 -2 -1 -3 -3 -3 1 -2 1 -0 -0 -2 -9 -1 -3 -1 4 3 -4 5 -8 -0 -4 6 9 4 9 18 -0 1 -2 10
1 -1 -1 -2 -2 -0 -1 -1 -2 -3 -3 -3 -3 -2 -3 -3 1 -1 -1 -3 -1 -1 -4 -4 -1 -0 -0 -7 2 0 -0 2 3 -0 7 6 2 14 8 4 7 4 -9 -15 -1 11 8
-2 -1 2 0 -1 -2 -3 -3 -3 -2 -3 -2 -2 -2 -4 -2 -3 -2 -4 -4 -1 -1 2 -0 -1 -3 1 -2 1 -4 -6 -6 -11 -12 -10 -9 24 12 -4 -25 -4 -5 -8 -8 -6 -6 -3
-1 0 -1 0 -1 -2 -2 -1 -3 -3 -3 -2 -3 -4 -3 -3 -2 -3 -2 -1 -2 3 2 4 3 -2 2 -4 -3 -12 -8 -1 -4 -9 -13 -2 -27 -6 -16 19 27 -3 16 9 2 2 -6
3 -1 -0 -2 -2 -2 -3 -2 -3 -3 -3 -2 -1 -1 -1 0 -0 -1 1 -1 2 -7 -8 -4 -7 -3 10 17 -2 -6 1 -3 4 1 3 1 -12 -33 1 6 30 -7 -2 3 14 -4 13
-2 -0 -1 -0 -1 -1 -2 -2 -3 -2 -1 -3 -4 -0 -3 -2 -3 -7 -11 -4 7 8 5 6 2 2 1 -0 -9 -9 3 4 -3 -3 2 -8 -15 -7 -18 -8 -1 -7 15 -8 1 2 0
0 -3 -2 -1 -1 -1 -2 -3 -2 -3 -2 1 -3 -7 -5 -7 -5 0 1 1 -0 -0 0 -4 -3 -2 -1 0 -4 -7 17 5 2 -3 -14 2 11 -25 -1 4 1 -29 -18 -7 9 13 4
0 -0 -1 -2 0 -5 -3 -2 -3 -3 -2 0 -2 -1 -0 -2 -6 -4 -2 -5 -5 -4 -1 5 -2 3 -2 -1 -6 5 -8 3 -2 -3 -6 6 4 0 8 31 16 22 6 6 6 -5 1
-3 -0 -0 -1 -2 -1 -4 -5 -2 -6 -3 -1 -2 -1 -4 -5 1 -6 -6 -1 -1 2 -2 1 -0 -1 0 -1 -5 -4 -4 0 -12 -3 4 6 -9 -4 -34 -41 8 -18 7 5 4 6 8
-2 -1 -0 -3 -2 -3 -1 -2 -3 -1 -3 2 -4 -4 -7 -2 -3 1 4 1 2 -3 -3 0 0 -2 -4 -6 7 7 -1 -6 -9 -1 -1 -8 -5 19 14 12 12 -6 -10 2 -1 -9 8
-2 -1 -2 -2 -3 -5 -0 -4 -2 0 -6 1 -6 -0 0 1 -0 -6 -3 -2 -1 0 -4 -6 8 -0 -3 -3 -4 -1 -2 -11 11 -1 -9 7 1 6 14 6 -1 -2 -1 -4 -3 1 -0
-2 -3 -1 -3 -0 -4 -3 2 -3 -3 0 -9 2 -8 -5 -4 1 -0 -1 -4 -2 1 -0 1 0 -2 -2 9 1 -8 -6 -1 2 -10 -11 -5 -11 -3 3 5 -1 -4 -3 3 5 5 0
-4 -0 -1 1 -2 -1 -3 -3 -5 -2 -2 -3 -2 -1 -1 1 -1 0 -2 -4 -4 0 -2 -5 -4 -4 3 -4 -1 -2 -1 -2 3 -1 -7 0 2 -5 -7 -14 13 3 -5 0 5 7 -1
-3 -2 -1 0 -1 -1 -6 -1 -1 2 -1 -3 -3 -1 -2 -3 -2 -2 -2 -0 -1 -0 -2 -3 -3 1 0 -3 -2 -2 -7 1 -1 14 -6 1 -6 4 -4 -10 -1 1 2 2 6 7 1
-2 -4 0 -1 1 0 -1 -1 -1 -2 -2 -2 -5 -3 -3 -2 -3 -2 -1 0 -4 -4 -7 -5 -2 -1 -2 -4 -9 6 17 15 14 9 -7 -3 -3 -6 10 0 7 5 -6 -13 -7 9 3
-1 -5 -4 -1 1 1 -1 -1 -2 1 -2 -4 -4 -2 2 -1 -1 -2 -3 -0 -1 -0 5 1 -1 -1 -1 -4 -4 0 3 -4 -1 -9 -5 -8 4 11 -8 5 4 8 2 10 5 4 1
0 -3 -5 -1 -2 -0 -2 0 -1 -4 -2 -0 -5 -4 2 -3 -4 -3 -2 1 -1 -1 3 -4 -4 -3 -3 -4 8 -3 4 1 -6 2 -5 -9 -14 8 -7 -1 9 1 -3 -10 -15 -17 -11
2 -3 -3 -4 -6 2 1 -0 1 -2 -3 -1 -6 -7 -2 -3 -2 -2 -3 -3 -0 -5 -3 -1 1 -3 -3 -7 -2 -3 -1 -4 -3 2 -1 0 -5 -1 -7 3 0 -20 -24 -9 0 -5 3
1 -1 4 -0 -5 -1 -2 -1 2 -0 -5 -2 -1 -2 1 -4 -0 -8 0 -5 -2 -1 -2 -0 0 -1 -6 -1 -0 -2 -3 4 0 8 -1 0 0 -2 -0 -15 -4 7 3 3 1 3 -1
Height
3169 3168 3166 3165 3163 3161 3159 3156 3154 3152 3149 3146 3143 3141 3138 3135 3132 3130 3127 3124 3121 3118 3115 3111 3108 3105 3102 3100 3097 3096 3093 3092 3091 3090 3089 3088 3087 3085 3082 3082 3081 3076 3075 3073 3072 3071 3068
3169 3168 3166 3164 3163 3161 3159 3156 3154 3151 3148 3145 3142 3139 3136 3133 3130 3127 3124 3121 3118 3114 3111 3108 3104 3101 3099 3097 3093 3091 3089 3087 3086 3085 3084 3083 3082 3080 3076 3076 3075 3071 3068 3064 3064 3063 3061
3168 3167 3166 3164 3162 3160 3158 3155 3153 3150 3147 3144 3141 3137 3134 3131 3128 3125 3121 3118 3114 3111 3107 3104 3101 3097 3095 3092 3087 3085 3083 3082 3081 3079 3078 3077 3077 3075 3074 3069 3069 3064 3059 3057 3057 3056 3051
3168 3167 3165 3163 3161 3159 3157 3154 3151 3148 3145 3142 3139 3135 3132 3128 3125 3121 3118 3114 3110 3106 3103 3100 3096 3093 3088 3085 3083 3081 3079 3078 3077 3076 3074 3073 3071 3070 3069 3066 3063 3060 3055 3046 3048 3049 3046
3167 3166 3164 3162 3160 3158 3155 3153 3150 3147 3143 3140 3136 3133 3129 3125 3121 3117 3114 3110 3106 3103 3099 3095 3092 3087 3084 3081 3080 3078 3076 3073 3071 3071 3069 3067 3066 3065 3064 3060 3056 3056 3046 3043 3041 3046 3043
3166 3165 3163 3161 3159 3157 3154 3151 3148 3145 3141 3137 3134 3130 3127 3123 3118 3114 3110 3106 3102 3099 3095 3090 3086 3086 3080 3078 3075 3073 3071 3069 3068 3067 3066 3064 3061 3060 3058 3057 3050 3046 3043 3039 3036 3042 3039
3166 3164 3162 3160 3158 3155 3153 3149 3146 3143 3139 3136 3132 3128 3124 3120 3115 3110 3107 3103 3100 3095 3091 3087 3082 3078 3076 3073 3072 3069 3068 3067 3066 3065 3063 3060 3056 3054 3054 3053 3047 3041 3036 3029 3024 3030 3031
3165 3163 3161 3159 3156 3154 3151 3147 3144 3140 3136 3132 3128 3124 3120 3116 3111 3106 3101 3097 3093 3091 3083 3080 3077 3075 3073 3071 3069 3067 3066 3065 3062 3060 3059 3058 3052 3051 3049 3046 3040 3038 3033 3023 3018 3020 3021
3164 3162 3160 3157 3155 3152 3149 3146 3142 3138 3134 3130 3126 3122 3117 3112 3108 3104 3099 3095 3091 3086 3082 3076 3074 3074 3073 3072 3068 3065 3065 3061 3058 3053 3053 3051 3047 3047 3043 3039 3033 3030 3029 3021 3015 3008 3005
3162 3160 3158 3155 3153 3150 3147 3143 3140 3136 3131 3127 3123 3118 3113 3108 3106 3100 3096 3092 3088 3083 3076 3077 3074 3073 3072 3069 3066 3062 3061 3057 3053 3051 3047 3046 3044 3038 3034 3033 3026 3017 3021 3012 3006 3004 2999
3161 3159 3156 3153 3150 3148 3144 3141 3137 3132 3128 3124 3119 3114 3108 3103 3100 3096 3093 3089 3085 3080 3079 3078 3074 3072 3069 3071 3068 3059 3053 3051 3050 3046 3046 3042 3036 3033 3032 3028 3024 3019 3014 3009 3004 2999 2996
3158 3156 3154 3151 3148 3145 3142 3138 3134 3130 3126 3121 3116 3111 3105 3102 3098 3093 3089 3086 3082 3081 3077 3076 3073 3070 3067 3063 3059 3057 3056 3048 3044 3039 3041 3038 3038 3030 3025 3023 3020 3015 3008 3002 2998 2995 2991
3156 3154 3152 3149 3146 3143 3139 3136 3131 3127 3122 3117 3112 3107 3103 3098 3095 3091 3087 3084 3083 3079 3081 3075 3071 3067 3063 3060 3059 3053 3052 3047 3040 3034 3033 3033 3032 3027 3021 3014 3011 3010 3007 3001 2996 2994 2987
3153 3151 3149 3146 3143 3139 3136 3132 3127 3123 3118 3114 3109 3104 3100 3096 3093 3089 3086 3084 3081 3081 3080 3077 3073 3069 3065 3059 3059 3054 3051 3048 3042 3042 3039 3032 3022 3027 3025 3025 3016 3013 3011 3009 3004 2999 2993
3150 3149 3146 3143 3140 3136 3133 3128 3124 3120 3115 3110 3106 3102 3097 3094 3091 3088 3086 3084 3087 3085 3081 3074 3071 3066 3067 3064 3059 3054 3053 3049 3046 3044 3046 3038 3031 3027 3025 3021 3017 3008 3007 3006 3000 2998 2994
3147 3145 3143 3140 3136 3133 3129 3125 3120 3116 3111 3107 3103 3099 3095 3092 3089 3085 3085 3083 3082 3080 3076 3072 3069 3068 3065 3062 3058 3056 3055 3051 3048 3047 3045 3041 3028 3027 3021 3018 3016 3011 3006 2999 2997 2991 2982
3143 3141 3139 3137 3133 3129 3125 3121 3116 3112 3108 3104 3100 3095 3092 3089 3086 3085 3081 3080 3077 3077 3074 3074 3070 3066 3065 3059 3056 3054 3055 3054 3046 3044 3043 3038 3035 3029 3023 3019 3013 3009 3004 3003 3000 2995 2988
3140 3138 3136 3133 3130 3125 3121 3116 3112 3109 3105 3101 3097 3093 3090 3085 3084 3080 3078 3077 3075 3072 3070 3068 3063 3061 3059 3057 3054 3053 3053 3053 3049 3045 3040 3038 3033 3029 3026 3023 3018 3013 3008 3003 3001 2997 2992
3136 3134 3132 3129 3124 3120 3117 3113 3109 3106 3103 3099 3094 3091 3086 3084 3081 3074 3074 3072 3071 3068 3066 3063 3061 3058 3056 3055 3054 3051 3051 3050 3047 3044 3040 3037 3034 3030 3024 3020 3016 3013 3011 3004 2999 2999 3000
3133 3131 3128 3124 3120 3117 3114 3110 3106 3103 3100 3097 3093 3088 3083 3081 3078 3075 3073 3070 3066 3064 3062 3061 3060 3057 3055 3053 3054 3052 3050 3048 3045 3043 3042 3038 3036 3034 3031 3027 3022 3018 3014 3011 3006 3005 3005
3130 3127 3124 3121 3116 3113 3110 3106 3103 3100 3097 3096 3091 3088 3084 3081 3074 3073 3071 3068 3065 3063 3061 3058 3057 3054 3053 3051 3051 3049 3048 3046 3046 3043 3040 3038 3035 3032 3028 3024 3021 3020 3017 3013 3011 3011 3009
3126 3122 3119 3116 3113 3110 3107 3103 3101 3098 3095 3093 3090 3086 3082 3076 3072 3068 3066 3062 3060 3058 3060 3056 3053 3051 3051 3050 3048 3047 3046 3044 3044 3041 3039 3037 3035 3030 3026 3023 3021 3018 3017 3015 3012 3010 3008
3122 3119 3116 3112 3110 3107 3104 3102 3099 3096 3093 3090 3087 3083 3079 3075 3070 3068 3065 3061 3058 3057 3053 3052 3051 3049 3049 3047 3046 3045 3045 3044 3043 3042 3040 3038 3035 3030 3026 3023 3018 3018 3017 3015 3014 3012 3007
3118 3116 3112 3110 3107 3104 3101 3098 3096 3094 3091 3087 3084 3081 3076 3071 3068 3066 3062 3060 3056 3054 3052 3050 3049 3047 3046 3045 3044 3043 3042 3042 3042 3043 3041 3038 3034 3031 3027 3023 3020 3019 3018 3016 3013 3010 3004
3115 3112 3110 3106 3103 3100 3097 3096 3093 3090 3088 3084 3082 3078 3072 3067 3064 3062 3059 3056 3052 3050 3050 3048 3047 3046 3044 3044 3043 3041 3041 3043 3043 3042 3040 3038 3035 3032 3029 3025 3022 3019 3015 3013 3009 3009 3000
3109 3108 3106 3104 3099 3097 3096 3093 3091 3088 3085 3081 3079 3075 3070 3066 3063 3060 3059 3057 3053 3051 3050 3048 3046 3045 3045 3043 3042 3043 3042 3042 3042 3041 3039 3037 3035 3034 3029 3026 3020 3020 3014 3011 3008 3003 2999
3104 3103 3102 3100 3097 3095 3093 3091 3088 3085 3082 3079 3075 3072 3067 3063 3060 3059 3058 3057 3055 3052 3051 3047 3046 3044 3043 3042 3042 3042 3044 3044 3043 3041 3037 3035 3033 3032 3029 3027 3022 3016 3011 3008 3008 3007 2996
3099 3099 3096 3095 3094 3092 3090 3088 3085 3082 3079 3077 3072 3069 3066 3061 3058 3057 3054 3055 3053 3051 3050 3048 3048 3045 3043 3043 3043 3043 3043 3043 3042 3041 3039 3037 3035 3033 3029 3024 3022 3015 3013 3010 3007 3000 2994
3095 3094 3091 3090 3089 3089 3088 3085 3082 3079 3076 3074 3070 3067 3062 3059 3057 3056 3053 3052 3052 3050 3049 3047 3047 3045 3044 3044 3044 3044 3043 3043 3042 3041 3039 3038 3037 3035 3033 3027 3022 3018 3012 3007 3001 2996 2989